Madison, SD

1:34 AM CDT on May 30, 2017 (GMT -0500)
Madison Municipal

Weather History for KMDS - September, 2013

Change the Weather History Date:

Saturday, September 14, 2013

  Actual Average Record
Temperature  
Mean Temperature 60 °F -  
Max Temperature 69 °F 71 °F 84 °F (2015)
Min Temperature 50 °F 47 °F 35 °F (2011)
Degree Days  
Heating Degree Days 6    
Growing Degree Days 10 (Base 50)    
Moisture  
Dew Point 54 °F    
Average Humidity 85    
Maximum Humidity 100    
Minimum Humidity 60    
Precipitation  
Precipitation 0.08 in - - ()
Sea Level Pressure  
Sea Level Pressure 29.92 in    
Wind  
Wind Speed 11 mph (South)    
Max Wind Speed 21 mph    
Max Gust Speed 30 mph    
Visibility 10 miles    
Events Rain    
Averages and records for this station are not official NWS values.
T = Trace of Precipitation, MM = Missing Value Source: NWS Daily Summary

Daily Weather History Graph

Daily Weather History Graph

Search for Another Location

Airport or City:

Trip Planner

Search our weather history database for the weather conditions in past years. The results will help you decide how hot, cold, wet, or windy it might be!

Date:

Astronomy

Sep. 14, 2013 Rise Set
Actual Time 7:06 AM CDT 7:40 PM CDT
Civil Twilight 6:37 AM CDT 8:09 PM CDT
Nautical Twilight 6:03 AM CDT 8:43 PM CDT
Astronomical Twilight 5:27 AM CDT 9:18 PM CDT
Moon 4:30 PM CDT (9/14) 1:31 AM CDT (9/14)
Length of Visible Light 13h 31m
Length of Day
12h 33m
Waxing Gibbous, 72% of the Moon is Illuminated
Sep 14
Waxing Gibbous
Sep 19
Full
Sep 26
Last Quarter
Oct 4
New
Oct 11
First Quarter

Hourly Weather History & Observations

Time (CDT) Temp. Dew Point Humidity Pressure Visibility Wind Dir Wind Speed Gust Speed Precip Events Conditions
12:10 AM 53.6 °F 53.6 °F 100% 30.05 in 10.0 mi South 10.4 mph - N/A   Clear
12:30 AM 51.8 °F 51.8 °F 100% 30.05 in 10.0 mi South 8.1 mph - N/A   Clear
12:50 AM 53.6 °F 53.6 °F 100% 30.05 in 10.0 mi South 9.2 mph - N/A   Clear
1:10 AM 53.6 °F 53.6 °F 100% 30.05 in 10.0 mi South 9.2 mph - N/A   Clear
1:30 AM 53.6 °F 53.6 °F 100% 30.05 in 10.0 mi South 9.2 mph - N/A   Clear
1:50 AM 53.6 °F 53.6 °F 100% 30.05 in 10.0 mi SSE 8.1 mph - N/A   Clear
2:10 AM 53.6 °F 53.6 °F 100% 30.05 in 10.0 mi SSE 9.2 mph - N/A   Clear
2:30 AM 51.8 °F 51.8 °F 100% 30.05 in 10.0 mi SSE 6.9 mph - N/A   Clear
2:50 AM 50.0 °F 50.0 °F 100% 30.04 in 10.0 mi South 5.8 mph - N/A   Clear
3:10 AM 50.0 °F 50.0 °F 100% 30.04 in 10.0 mi South 6.9 mph - N/A   Clear
3:30 AM 50.0 °F 50.0 °F 100% 30.03 in 10.0 mi South 6.9 mph - N/A   Clear
3:50 AM 50.0 °F 50.0 °F 100% 30.03 in 10.0 mi South 8.1 mph - N/A   Clear
4:10 AM 50.0 °F 50.0 °F 100% 30.03 in 10.0 mi South 6.9 mph - N/A   Clear
4:30 AM 50.0 °F 50.0 °F 100% 30.02 in 10.0 mi SSE 6.9 mph - N/A   Clear
4:50 AM 50.0 °F 50.0 °F 100% 30.02 in 10.0 mi South 6.9 mph - N/A   Partly Cloudy
5:10 AM 51.8 °F 51.8 °F 100% 30.01 in 10.0 mi South 8.1 mph - N/A   Partly Cloudy
5:30 AM 51.8 °F 51.8 °F 100% 30.01 in 10.0 mi South 5.8 mph - N/A   Scattered Clouds
5:50 AM 53.6 °F 53.6 °F 100% 30.01 in 10.0 mi SSE 6.9 mph - N/A   Overcast
6:10 AM 53.6 °F 53.6 °F 100% 30.01 in 10.0 mi SSE 6.9 mph - N/A   Overcast
6:30 AM 53.6 °F 53.6 °F 100% 30.00 in 10.0 mi SSE 6.9 mph - N/A   Overcast
6:50 AM 53.6 °F 53.6 °F 100% 29.99 in 10.0 mi South 9.2 mph - N/A   Overcast
7:10 AM 53.6 °F 53.6 °F 100% 29.99 in 10.0 mi South 10.4 mph - N/A   Overcast
7:30 AM 53.6 °F 53.6 °F 100% 29.99 in 10.0 mi South 9.2 mph - N/A   Overcast
7:50 AM 53.6 °F 53.6 °F 100% 29.99 in 10.0 mi South 8.1 mph - N/A Rain Light Rain
8:10 AM 53.6 °F 53.6 °F 100% 29.98 in 10.0 mi SSE 9.2 mph - N/A   Scattered Clouds
8:30 AM 53.6 °F 53.6 °F 100% 29.98 in 10.0 mi South 10.4 mph - N/A   Partly Cloudy
8:50 AM 55.4 °F 55.4 °F 100% 29.97 in 10.0 mi South 11.5 mph - N/A   Clear
9:10 AM 55.4 °F 55.4 °F 100% 29.97 in 10.0 mi South 9.2 mph - N/A   Scattered Clouds
9:30 AM 57.2 °F 57.2 °F 100% 29.97 in 10.0 mi South 10.4 mph 16.1 mph N/A   Mostly Cloudy
9:50 AM 59.0 °F 55.4 °F 88% 29.96 in 10.0 mi South 11.5 mph 16.1 mph N/A   Mostly Cloudy
10:10 AM 59.0 °F 53.6 °F 82% 29.96 in 10.0 mi South 12.7 mph 17.3 mph N/A   Mostly Cloudy
10:30 AM 59.0 °F 53.6 °F 82% 29.96 in 9.0 mi South 16.1 mph 20.7 mph N/A   Overcast
10:50 AM 57.2 °F 55.4 °F 94% 29.95 in 2.5 mi South 12.7 mph 20.7 mph 0.02 in Rain Rain
11:10 AM 57.2 °F 57.2 °F 100% 29.94 in 10.0 mi South 13.8 mph 19.6 mph N/A   Overcast
11:30 AM 57.2 °F 57.2 °F 100% 29.94 in 1.0 mi South 11.5 mph 20.7 mph 0.06 in Rain Rain
11:50 AM 57.2 °F 57.2 °F 100% 29.93 in 10.0 mi South 11.5 mph 17.3 mph 0.06 in   Overcast
12:10 PM 59.0 °F 59.0 °F 100% 29.93 in 10.0 mi South 13.8 mph 20.7 mph N/A Rain Light Rain
12:30 PM 59.0 °F 57.2 °F 94% 29.92 in 10.0 mi South 15.0 mph 21.9 mph N/A   Mostly Cloudy
12:50 PM 59.0 °F 57.2 °F 94% 29.90 in 10.0 mi South 15.0 mph 23.0 mph N/A   Overcast
1:10 PM 60.8 °F 55.4 °F 82% 29.90 in 10.0 mi South 16.1 mph 21.9 mph N/A   Overcast
1:30 PM 62.6 °F 55.4 °F 77% 29.88 in 10.0 mi South 17.3 mph 24.2 mph N/A   Overcast
1:50 PM 64.4 °F 55.4 °F 73% 29.87 in 10.0 mi South 19.6 mph 27.6 mph N/A   Mostly Cloudy
2:10 PM 62.6 °F 53.6 °F 72% 29.86 in 10.0 mi South 20.7 mph 29.9 mph N/A   Mostly Cloudy
2:30 PM 64.4 °F 53.6 °F 68% 29.85 in 10.0 mi South 17.3 mph 28.8 mph N/A   Mostly Cloudy
2:50 PM 62.6 °F 53.6 °F 72% 29.85 in 10.0 mi South 17.3 mph 25.3 mph N/A   Scattered Clouds
3:10 PM 62.6 °F 53.6 °F 72% 29.85 in 10.0 mi South 18.4 mph 24.2 mph N/A   Mostly Cloudy
3:30 PM 62.6 °F 53.6 °F 72% 29.85 in 10.0 mi South 17.3 mph 25.3 mph N/A   Scattered Clouds
3:50 PM 64.4 °F 53.6 °F 68% 29.84 in 10.0 mi South 15.0 mph 23.0 mph N/A   Scattered Clouds
4:10 PM 64.4 °F 53.6 °F 68% 29.83 in 10.0 mi South 15.0 mph 23.0 mph N/A   Partly Cloudy
4:30 PM 66.2 °F 53.6 °F 64% 29.81 in 10.0 mi South 19.6 mph 26.5 mph N/A   Scattered Clouds
4:50 PM 68.0 °F 53.6 °F 60% 29.83 in 10.0 mi SSW 11.5 mph 24.2 mph N/A   Partly Cloudy
5:10 PM 68.0 °F 53.6 °F 60% 29.82 in 10.0 mi SSW 16.1 mph 21.9 mph N/A   Partly Cloudy
5:30 PM 68.0 °F 53.6 °F 60% 29.82 in 10.0 mi South 19.6 mph 26.5 mph N/A   Mostly Cloudy
5:50 PM 68.0 °F 53.6 °F 60% 29.82 in 10.0 mi SSW 16.1 mph 23.0 mph N/A   Scattered Clouds
6:10 PM 69.8 °F 55.4 °F 60% 29.82 in 10.0 mi SSW 17.3 mph 25.3 mph N/A   Partly Cloudy
6:30 PM 68.0 °F 55.4 °F 64% 29.80 in 10.0 mi South 17.3 mph 24.2 mph N/A   Scattered Clouds
6:50 PM 68.0 °F 55.4 °F 64% 29.80 in 10.0 mi South 13.8 mph - N/A   Partly Cloudy
7:10 PM 68.0 °F 57.2 °F 68% 29.79 in 10.0 mi South 12.7 mph 21.9 mph N/A   Clear
7:30 PM 66.2 °F 57.2 °F 73% 29.79 in 10.0 mi South 11.5 mph - N/A   Clear
7:50 PM 66.2 °F 55.4 °F 68% 29.79 in 10.0 mi South 10.4 mph - N/A   Clear
8:10 PM 64.4 °F 55.4 °F 73% 29.80 in 10.0 mi South 10.4 mph - N/A   Clear
8:30 PM 64.4 °F 55.4 °F 73% 29.80 in 10.0 mi South 8.1 mph - N/A   Clear
8:50 PM 64.4 °F 55.4 °F 73% 29.80 in 10.0 mi South 10.4 mph - N/A   Clear
9:10 PM 64.4 °F 57.2 °F 77% 29.80 in 10.0 mi South 11.5 mph - N/A   Scattered Clouds
9:30 PM 64.4 °F 55.4 °F 73% 29.80 in 10.0 mi South 11.5 mph - N/A   Scattered Clouds
9:50 PM 64.4 °F 55.4 °F 73% 29.80 in 10.0 mi South 11.5 mph - N/A   Mostly Cloudy
10:10 PM 66.2 °F 55.4 °F 68% 29.80 in 10.0 mi South 11.5 mph 21.9 mph N/A   Mostly Cloudy
10:30 PM 66.2 °F 55.4 °F 68% 29.79 in 10.0 mi SSW 13.8 mph 21.9 mph N/A   Overcast
10:50 PM 66.2 °F 57.2 °F 73% 29.79 in 10.0 mi SSW 15.0 mph 18.4 mph N/A   Overcast
11:10 PM 66.2 °F 57.2 °F 73% 29.80 in 10.0 mi SSW 12.7 mph - N/A   Overcast
11:30 PM 66.2 °F 57.2 °F 73% 29.81 in 10.0 mi SW 11.5 mph 18.4 mph N/A   Overcast
11:50 PM 66.2 °F 59.0 °F 78% 29.81 in 10.0 mi SW 12.7 mph 19.6 mph N/A   Mostly Cloudy